When you browse on this site, cookies collect data to enhance your experience and personalize the content and advertising you see.
Visit our Privacy Policy to learn more. By continuing to use the site, you agree to this use of cookies and data.
  • In Hungary
  • List of Countries
  • For 7 days
  • Water Temperature
  • Satellite Maps
  • Weather Map
  • News
  • Weather Widgets
  • user-avatar
    Login

    Hourly Weather Olbrych

    Today, 20 May, Monday

    Time Temperature Precipitation Wind Pressure Humidity
    00:00 +13°C° 0 mm 3 mps 729 mmHg 93%
    01:00 +14°C° 0 mm 2 mps 728 mmHg 93%
    02:00 +13°C° 0 mm 3 mps 728 mmHg 94%
    03:00 +13°C° 0 mm 3 mps 727 mmHg 95%
    04:00 +13°C° 0 mm 3 mps 727 mmHg 96%
    05:00 +14°C° 0 mm 4 mps 727 mmHg 91%
    06:00 +16°C° 0 mm 5 mps 727 mmHg 85%
    07:00 +19°C° 0 mm 6 mps 727 mmHg 79%
    08:00 +20°C° 0 mm 6 mps 728 mmHg 74%
    09:00 +21°C° 0 mm 6 mps 728 mmHg 69%
    10:00 +22°C° 0 mm 6 mps 728 mmHg 64%
    11:00 +23°C° 0 mm 6 mps 728 mmHg 61%
    12:00 +23°C° 0 mm 6 mps 728 mmHg 58%
    13:00 +24°C° 0 mm 6 mps 728 mmHg 55%
    14:00 +23°C° 0 mm 5 mps 728 mmHg 58%
    15:00 +23°C° 0 mm 5 mps 728 mmHg 60%
    16:00 +23°C° 0 mm 5 mps 728 mmHg 63%
    17:00 +21°C° 0 mm 5 mps 728 mmHg 69%
    18:00 +19°C° 0 mm 4 mps 728 mmHg 75%
    19:00 +18°C° 0 mm 4 mps 728 mmHg 81%
    20:00 +17°C° 0 mm 3 mps 728 mmHg 81%
    21:00 +16°C° 0 mm 3 mps 728 mmHg 81%
    22:00 +15°C° 0 mm 2 mps 728 mmHg 81%
    23:00 +15°C° 0 mm 2 mps 728 mmHg 80%

    Tomorrow, 21 May, Tuesday

    Time Temperature Precipitation Wind Pressure Humidity
    00:00 +15°C° 0 mm 2 mps 728 mmHg 78%
    01:00 +15°C° 0 mm 2 mps 728 mmHg 77%
    02:00 +15°C° 0 mm 2 mps 728 mmHg 78%
    03:00 +15°C° 0 mm 2 mps 728 mmHg 79%
    04:00 +14°C° 0 mm 2 mps 728 mmHg 80%
    05:00 +15°C° 0.2 mm 2 mps 728 mmHg 81%
    06:00 +15°C° 0.2 mm 2 mps 728 mmHg 83%
    07:00 +15°C° 0.2 mm 1 mps 728 mmHg 85%
    08:00 +16°C° 0.2 mm 1 mps 728 mmHg 82%
    09:00 +18°C° 0.2 mm 1 mps 728 mmHg 79%
    10:00 +18°C° 0.2 mm 1 mps 728 mmHg 76%
    11:00 +18°C° 1.1 mm 1 mps 728 mmHg 80%
    12:00 +16°C° 1.1 mm 2 mps 728 mmHg 85%
    13:00 +16°C° 1.1 mm 2 mps 728 mmHg 89%
    14:00 +15°C° 0.6 mm 2 mps 728 mmHg 90%
    15:00 +14°C° 0.6 mm 3 mps 728 mmHg 91%
    16:00 +14°C° 0.6 mm 3 mps 728 mmHg 91%
    17:00 +14°C° 0.9 mm 3 mps 728 mmHg 92%
    18:00 +13°C° 0.9 mm 3 mps 728 mmHg 92%
    19:00 +13°C° 0.9 mm 3 mps 728 mmHg 92%
    20:00 +13°C° 0.3 mm 3 mps 729 mmHg 92%
    21:00 +13°C° 0.3 mm 3 mps 729 mmHg 91%
    22:00 +13°C° 0.3 mm 3 mps 729 mmHg 91%
    23:00 +13°C° 0.1 mm 2 mps 729 mmHg 91%

    Day after tomorrow, 22 May, Wednesday

    Time Temperature Precipitation Wind Pressure Humidity
    00:00 +13°C° 0.1 mm 2 mps 729 mmHg 91%
    01:00 +12°C° 0.1 mm 2 mps 729 mmHg 91%
    02:00 +12°C° 0 mm 2 mps 729 mmHg 92%
    03:00 +12°C° 0 mm 2 mps 729 mmHg 92%
    04:00 +10°C° 0 mm 2 mps 729 mmHg 92%
    05:00 +13°C° 0 mm 2 mps 729 mmHg 89%
    06:00 +13°C° 0 mm 3 mps 729 mmHg 87%
    07:00 +14°C° 0 mm 4 mps 729 mmHg 85%
    08:00 +15°C° 0.3 mm 4 mps 729 mmHg 80%
    09:00 +17°C° 0.3 mm 4 mps 729 mmHg 76%
    10:00 +19°C° 0.3 mm 5 mps 730 mmHg 72%
    11:00 +17°C° 0.8 mm 5 mps 730 mmHg 76%
    12:00 +16°C° 0.8 mm 5 mps 730 mmHg 79%
    13:00 +15°C° 0.8 mm 5 mps 730 mmHg 83%
    14:00 +15°C° 0.3 mm 5 mps 730 mmHg 85%
    15:00 +14°C° 0.3 mm 5 mps 730 mmHg 87%
    16:00 +14°C° 0.3 mm 5 mps 730 mmHg 89%
    17:00 +14°C° 0.5 mm 5 mps 730 mmHg 90%
    18:00 +13°C° 0.5 mm 5 mps 730 mmHg 91%
    19:00 +13°C° 0.5 mm 6 mps 730 mmHg 93%
    20:00 +11°C° 0.1 mm 6 mps 730 mmHg 93%
    21:00 +12°C° 0.1 mm 5 mps 731 mmHg 93%
    22:00 +12°C° 0.1 mm 5 mps 731 mmHg 93%
    23:00 +10°C° 0.1 mm 6 mps 731 mmHg 93%

    23 May, Thursday

    Time Temperature Precipitation Wind Pressure Humidity
    00:00 +10°C° 0.1 mm 6 mps 731 mmHg 92%
    01:00 +10°C° 0.1 mm 6 mps 731 mmHg 92%
    02:00 +10°C° 1.2 mm 6 mps 731 mmHg 93%
    03:00 +10°C° 1.2 mm 6 mps 731 mmHg 94%
    04:00 +10°C° 1.2 mm 6 mps 731 mmHg 94%
    05:00 +10°C° 1.7 mm 6 mps 732 mmHg 94%
    06:00 +11°C° 1.7 mm 7 mps 732 mmHg 94%
    07:00 +11°C° 1.7 mm 7 mps 732 mmHg 94%
    08:00 +11°C° 0.3 mm 7 mps 733 mmHg 93%
    09:00 +11°C° 0.3 mm 8 mps 733 mmHg 92%
    10:00 +11°C° 0.3 mm 8 mps 734 mmHg 91%
    11:00 +10°C° 0.5 mm 8 mps 734 mmHg 90%
    12:00 +10°C° 0.5 mm 8 mps 734 mmHg 90%
    13:00 +9°C° 0.5 mm 8 mps 735 mmHg 90%
    14:00 +9°C° 0.3 mm 7 mps 735 mmHg 90%
    15:00 +8°C° 0.3 mm 7 mps 735 mmHg 91%
    16:00 +8°C° 0.3 mm 7 mps 735 mmHg 91%
    17:00 +8°C° 0.5 mm 6 mps 735 mmHg 91%
    18:00 +8°C° 0.5 mm 5 mps 735 mmHg 91%
    19:00 +8°C° 0.5 mm 4 mps 735 mmHg 91%
    20:00 +8°C° 0.3 mm 4 mps 735 mmHg 91%
    21:00 +8°C° 0.3 mm 4 mps 736 mmHg 91%
    22:00 +8°C° 0.3 mm 4 mps 736 mmHg 91%
    23:00 +8°C° 0 mm 4 mps 736 mmHg 91%

    24 May, Friday

    Time Temperature Precipitation Wind Pressure Humidity
    00:00 +8°C° 0 mm 4 mps 736 mmHg 92%
    01:00 +9°C° 0 mm 3 mps 736 mmHg 93%
    02:00 +9°C° 0 mm 3 mps 735 mmHg 93%
    03:00 +8°C° 0 mm 3 mps 735 mmHg 93%
    04:00 +8°C° 0 mm 3 mps 735 mmHg 93%
    05:00 +9°C° 0 mm 3 mps 735 mmHg 90%
    06:00 +10°C° 0 mm 3 mps 735 mmHg 87%
    07:00 +10°C° 0 mm 3 mps 735 mmHg 84%
    08:00 +12°C° 0 mm 3 mps 735 mmHg 76%
    09:00 +13°C° 0 mm 3 mps 735 mmHg 68%
    10:00 +14°C° 0 mm 3 mps 734 mmHg 61%
    11:00 +16°C° 0 mm 3 mps 734 mmHg 58%
    12:00 +17°C° 0 mm 3 mps 734 mmHg 55%
    13:00 +18°C° 0 mm 3 mps 733 mmHg 52%
    14:00 +18°C° 0 mm 2 mps 733 mmHg 52%
    15:00 +18°C° 0 mm 2 mps 732 mmHg 52%
    16:00 +18°C° 0 mm 2 mps 732 mmHg 52%
    17:00 +18°C° 0 mm 1 mps 732 mmHg 57%
    18:00 +15°C° 0 mm 1 mps 731 mmHg 62%
    19:00 +14°C° 0 mm 1 mps 731 mmHg 67%
    20:00 +12°C° 0 mm 1 mps 731 mmHg 71%
    21:00 +11°C° 0 mm 1 mps 731 mmHg 74%
    22:00 +9°C° 0 mm 0 mps 731 mmHg 77%
    23:00 +9°C° 0 mm 0 mps 731 mmHg 79%

    25 May, Saturday

    Time Temperature Precipitation Wind Pressure Humidity
    00:00 +8°C° 0 mm 0 mps 731 mmHg 81%
    01:00 +8°C° 0 mm 0 mps 731 mmHg 82%
    02:00 +8°C° 0 mm 0 mps 730 mmHg 83%
    03:00 +7°C° 0 mm 0 mps 730 mmHg 84%
    04:00 +7°C° 0 mm 0 mps 730 mmHg 84%
    05:00 +9°C° 0 mm 0 mps 730 mmHg 80%
    06:00 +11°C° 0 mm 0 mps 730 mmHg 75%
    07:00 +13°C° 0 mm 0 mps 730 mmHg 71%
    08:00 +14°C° 0 mm 0 mps 730 mmHg 67%
    09:00 +16°C° 0 mm 0 mps 731 mmHg 63%
    10:00 +18°C° 0 mm 0 mps 731 mmHg 59%
    11:00 +18°C° 0 mm 0 mps 730 mmHg 56%
    12:00 +19°C° 0 mm 0 mps 730 mmHg 53%
    13:00 +22°C° 0 mm 1 mps 730 mmHg 50%
    14:00 +22°C° 0 mm 1 mps 730 mmHg 50%
    15:00 +22°C° 0 mm 1 mps 730 mmHg 50%
    16:00 +22°C° 0 mm 1 mps 730 mmHg 50%
    17:00 +20°C° 0 mm 1 mps 730 mmHg 56%
    18:00 +19°C° 0 mm 1 mps 730 mmHg 61%
    19:00 +16°C° 0 mm 1 mps 730 mmHg 66%
    20:00 +15°C° 0 mm 1 mps 731 mmHg 71%
    21:00 +14°C° 0 mm 1 mps 731 mmHg 77%
    22:00 +13°C° 0 mm 1 mps 731 mmHg 82%
    23:00 +12°C° 0 mm 1 mps 731 mmHg 83%
    Show more